Zurück zum Katalog

STARLINK-31749

AktivKommunikationVLEO
NORAD 59631·PAYLOAD·🇺🇸 United States

Gestartet May 3, 2024 von Cape Canaveral Space Force Station

Loading…

Nächste Überflüge (nächste 24 Stunden)

TLE

AktuellSource: CelesTrak SupGP

Epoche: Sep 14, 2026, 22:41 UTC

1 59631C 24082A   26257.94562500 -.00038039  00000+0 -13777-2 0  2571
2 59631  43.0014 150.6645 0001383 269.0987 321.1948 15.27597709    12

Verfolge STARLINK-31749 in Echtzeit mit AllMySat

Download on the App Store